When you browse on this site, cookies collect data to enhance your experience and personalize the content and advertising you see.
Visit our Privacy Policy to learn more. By continuing to use the site, you agree to this use of cookies and data.
  • In Austria
  • List of Countries
  • For 7 days
  • Water Temperature
  • Weather Map
  • News
  • Weather Widgets
  • user-avatar
    Login

    Hourly Weather Berat

    Today, 21 January, Tuesday

    Time Temperature Precipitation Wind Pressure Humidity
    00:00 +5°C° 0 mm 2 mps 761 mmHg 67%
    01:00 +4°C° 0 mm 2 mps 761 mmHg 66%
    02:00 +4°C° 0 mm 2 mps 761 mmHg 65%
    03:00 +4°C° 0 mm 2 mps 761 mmHg 63%
    04:00 +4°C° 0 mm 2 mps 761 mmHg 61%
    05:00 +4°C° 0 mm 2 mps 761 mmHg 59%
    06:00 +4°C° 0 mm 2 mps 761 mmHg 57%
    07:00 +4°C° 0 mm 2 mps 761 mmHg 55%
    08:00 +5°C° 0 mm 2 mps 761 mmHg 50%
    09:00 +8°C° 0 mm 1 mps 761 mmHg 45%
    10:00 +10°C° 0 mm 1 mps 762 mmHg 40%
    11:00 +11°C° 0 mm 1 mps 761 mmHg 39%
    12:00 +12°C° 0 mm 1 mps 761 mmHg 38%
    13:00 +12°C° 0 mm 1 mps 761 mmHg 37%
    14:00 +12°C° 0 mm 1 mps 760 mmHg 43%
    15:00 +11°C° 0 mm 1 mps 760 mmHg 50%
    16:00 +10°C° 0 mm 1 mps 759 mmHg 56%
    17:00 +9°C° 0 mm 1 mps 759 mmHg 57%
    18:00 +8°C° 0 mm 1 mps 759 mmHg 57%
    19:00 +7°C° 0 mm 1 mps 759 mmHg 58%
    20:00 +6°C° 0 mm 1 mps 759 mmHg 57%
    21:00 +6°C° 0 mm 1 mps 759 mmHg 56%
    22:00 +6°C° 0 mm 1 mps 759 mmHg 54%
    23:00 +6°C° 0 mm 1 mps 758 mmHg 53%

    Tomorrow, 22 January, Wednesday

    Time Temperature Precipitation Wind Pressure Humidity
    00:00 +6°C° 0 mm 1 mps 758 mmHg 52%
    01:00 +6°C° 0 mm 1 mps 758 mmHg 51%
    02:00 +6°C° 0 mm 1 mps 757 mmHg 50%
    03:00 +6°C° 0 mm 1 mps 757 mmHg 49%
    04:00 +5°C° 0 mm 1 mps 757 mmHg 47%
    05:00 +5°C° 0 mm 1 mps 756 mmHg 46%
    06:00 +5°C° 0 mm 1 mps 756 mmHg 45%
    07:00 +5°C° 0 mm 1 mps 756 mmHg 44%
    08:00 +7°C° 0 mm 1 mps 756 mmHg 41%
    09:00 +8°C° 0 mm 0 mps 756 mmHg 39%
    10:00 +10°C° 0 mm 0 mps 756 mmHg 36%
    11:00 +11°C° 0 mm 1 mps 756 mmHg 38%
    12:00 +12°C° 0 mm 1 mps 755 mmHg 39%
    13:00 +12°C° 0 mm 2 mps 754 mmHg 41%
    14:00 +11°C° 0 mm 1 mps 754 mmHg 46%
    15:00 +11°C° 0 mm 1 mps 754 mmHg 52%
    16:00 +10°C° 0 mm 1 mps 753 mmHg 57%
    17:00 +9°C° 0 mm 1 mps 753 mmHg 58%
    18:00 +8°C° 0 mm 1 mps 753 mmHg 58%
    19:00 +6°C° 0 mm 0 mps 752 mmHg 58%
    20:00 +6°C° 0 mm 1 mps 752 mmHg 57%
    21:00 +6°C° 0 mm 1 mps 752 mmHg 57%
    22:00 +6°C° 0 mm 1 mps 752 mmHg 56%
    23:00 +6°C° 0 mm 1 mps 752 mmHg 56%

    Day after tomorrow, 23 January, Thursday

    Time Temperature Precipitation Wind Pressure Humidity
    00:00 +6°C° 0 mm 1 mps 752 mmHg 55%
    01:00 +6°C° 0 mm 1 mps 752 mmHg 55%
    02:00 +6°C° 0 mm 1 mps 752 mmHg 56%
    03:00 +5°C° 0 mm 1 mps 751 mmHg 57%
    04:00 +5°C° 0 mm 1 mps 751 mmHg 59%
    05:00 +5°C° 0 mm 1 mps 751 mmHg 59%
    06:00 +5°C° 0 mm 1 mps 751 mmHg 59%
    07:00 +5°C° 0 mm 1 mps 751 mmHg 60%
    08:00 +7°C° 0 mm 1 mps 751 mmHg 55%
    09:00 +9°C° 0 mm 1 mps 752 mmHg 51%
    10:00 +11°C° 0 mm 1 mps 752 mmHg 46%
    11:00 +12°C° 0 mm 1 mps 752 mmHg 45%
    12:00 +13°C° 0 mm 1 mps 751 mmHg 43%
    13:00 +13°C° 0 mm 2 mps 751 mmHg 42%
    14:00 +13°C° 0 mm 2 mps 751 mmHg 46%
    15:00 +12°C° 0 mm 1 mps 751 mmHg 51%
    16:00 +11°C° 0 mm 1 mps 751 mmHg 55%
    17:00 +10°C° 0 mm 1 mps 751 mmHg 56%
    18:00 +9°C° 0 mm 1 mps 752 mmHg 56%
    19:00 +7°C° 0 mm 2 mps 752 mmHg 57%
    20:00 +7°C° 0 mm 2 mps 753 mmHg 57%
    21:00 +7°C° 0 mm 2 mps 753 mmHg 57%
    22:00 +7°C° 0 mm 2 mps 753 mmHg 57%
    23:00 +6°C° 0 mm 2 mps 754 mmHg 57%

    24 January, Friday

    Time Temperature Precipitation Wind Pressure Humidity
    00:00 +6°C° 0 mm 2 mps 754 mmHg 58%
    01:00 +6°C° 0 mm 2 mps 754 mmHg 58%
    02:00 +6°C° 0 mm 2 mps 754 mmHg 58%
    03:00 +5°C° 0 mm 2 mps 754 mmHg 59%
    04:00 +5°C° 0 mm 2 mps 754 mmHg 60%
    05:00 +5°C° 0 mm 2 mps 754 mmHg 60%
    06:00 +5°C° 0 mm 2 mps 754 mmHg 61%
    07:00 +5°C° 0 mm 2 mps 755 mmHg 61%
    08:00 +7°C° 0 mm 2 mps 755 mmHg 58%
    09:00 +9°C° 0 mm 2 mps 755 mmHg 54%
    10:00 +12°C° 0 mm 1 mps 756 mmHg 51%
    11:00 +12°C° 0 mm 1 mps 755 mmHg 49%
    12:00 +13°C° 0 mm 1 mps 755 mmHg 48%
    13:00 +14°C° 0 mm 1 mps 755 mmHg 47%
    14:00 +14°C° 0 mm 1 mps 754 mmHg 52%
    15:00 +13°C° 0 mm 1 mps 754 mmHg 57%
    16:00 +12°C° 0 mm 1 mps 754 mmHg 62%
    17:00 +11°C° 0 mm 1 mps 754 mmHg 66%
    18:00 +10°C° 0 mm 1 mps 754 mmHg 69%
    19:00 +9°C° 0 mm 1 mps 754 mmHg 73%
    20:00 +9°C° 0 mm 1 mps 754 mmHg 75%
    21:00 +8°C° 0 mm 1 mps 754 mmHg 77%
    22:00 +8°C° 0 mm 1 mps 754 mmHg 79%
    23:00 +7°C° 0 mm 2 mps 754 mmHg 80%

    25 January, Saturday

    Time Temperature Precipitation Wind Pressure Humidity
    00:00 +7°C° 0 mm 2 mps 754 mmHg 81%
    01:00 +7°C° 0 mm 2 mps 754 mmHg 83%
    02:00 +6°C° 0 mm 2 mps 753 mmHg 83%
    03:00 +6°C° 0 mm 2 mps 753 mmHg 84%
    04:00 +6°C° 0 mm 2 mps 753 mmHg 84%
    05:00 +6°C° 0 mm 2 mps 753 mmHg 83%
    06:00 +6°C° 0 mm 2 mps 753 mmHg 83%
    07:00 +6°C° 0 mm 2 mps 753 mmHg 82%
    08:00 +8°C° 0 mm 2 mps 753 mmHg 77%
    09:00 +9°C° 0 mm 2 mps 753 mmHg 72%
    10:00 +12°C° 0 mm 2 mps 754 mmHg 67%
    11:00 +13°C° 0 mm 2 mps 753 mmHg 65%
    12:00 +14°C° 0 mm 2 mps 753 mmHg 64%
    13:00 +14°C° 0 mm 2 mps 752 mmHg 62%
    14:00 +14°C° 0 mm 1 mps 752 mmHg 66%
    15:00 +13°C° 0 mm 1 mps 752 mmHg 69%
    16:00 +13°C° 0 mm 1 mps 752 mmHg 72%
    17:00 +12°C° 0 mm 1 mps 752 mmHg 76%
    18:00 +11°C° 0 mm 1 mps 752 mmHg 79%
    19:00 +10°C° 0 mm 1 mps 752 mmHg 83%
    20:00 +9°C° 0 mm 2 mps 752 mmHg 83%
    21:00 +8°C° 0 mm 2 mps 752 mmHg 84%
    22:00 +8°C° 0 mm 2 mps 752 mmHg 84%
    23:00 +8°C° 0 mm 2 mps 752 mmHg 84%

    26 January, Sunday

    Time Temperature Precipitation Wind Pressure Humidity
    00:00 +9°C° 0 mm 1 mps 752 mmHg 84%
    01:00 +8°C° 0 mm 1 mps 752 mmHg 84%
    02:00 +8°C° 0 mm 1 mps 752 mmHg 83%
    03:00 +7°C° 0 mm 2 mps 752 mmHg 82%
    04:00 +7°C° 0 mm 2 mps 752 mmHg 82%
    05:00 +7°C° 0 mm 2 mps 752 mmHg 80%
    06:00 +7°C° 0 mm 2 mps 752 mmHg 78%
    07:00 +8°C° 0 mm 2 mps 752 mmHg 76%
    08:00 +9°C° 0 mm 2 mps 752 mmHg 73%
    09:00 +10°C° 0 mm 2 mps 752 mmHg 69%
    10:00 +12°C° 0 mm 2 mps 752 mmHg 65%
    11:00 +13°C° 0 mm 2 mps 752 mmHg 61%
    12:00 +14°C° 0 mm 1 mps 752 mmHg 58%
    13:00 +15°C° 0 mm 1 mps 751 mmHg 54%
    14:00 +15°C° 0 mm 1 mps 751 mmHg 58%
    15:00 +14°C° 0 mm 1 mps 751 mmHg 61%
    16:00 +14°C° 0 mm 1 mps 751 mmHg 65%
    17:00 +13°C° 0 mm 1 mps 751 mmHg 67%
    18:00 +12°C° 0 mm 1 mps 751 mmHg 69%
    19:00 +11°C° 0 mm 1 mps 751 mmHg 71%
    20:00 +10°C° 0 mm 2 mps 751 mmHg 72%
    21:00 +10°C° 0 mm 2 mps 751 mmHg 72%
    22:00 +10°C° 0 mm 2 mps 752 mmHg 73%
    23:00 +10°C° 0 mm 2 mps 752 mmHg 72%
    Show more